Weather in Pyussi

Estonia     59°21′47″N   27°02′40″E
temp.,
°C
wind,
m/s
gust,
m/s
humid.,
%
clouds,
%
prec.,
mm/h
press.,
hPa
HPBL,
m
27 september, mon
mon2700:00+6nw11935 0.0 102610
03:00+6nw119267 0.0 102810
06:00+5n119224 0.0 102910
09:00+8ne12825 0.0 103085
12:00+13ene23585 0.0 1030817
15:00+14ne23545 0.0 10301105
18:00+11ne35755 0.0 1030193
21:00+7ene23945 0.0 103154
28 september, tue
tue2800:00+7ese24942 0.0 103179
03:00+6se22960 0.0 103238
06:00+5se22960 0.0 103228
09:00+8ese24860 0.0 1033127
12:00+13ese34610 0.0 1033744
15:00+15se235213 0.0 10321282
18:00+12sse127062 0.0 103332
21:00+10se2472100 0.0 103384
29 september, wed
wed2900:00+10sse3776100 0.0 1035358
03:00+9se2680100 0.0 1035292
06:00+9se2678100 0.0 1035267
09:00+10se2570100 0.0 1035224
12:00+11sse3562100 0.0 1035749
15:00+12sse355637 0.0 10341087
18:00+10se24655 0.0 1034106
21:00+7se228110 0.0 103432
30 september, thu
thu3000:00+6se26897 0.0 1034117
03:00+5se269534 0.0 1034129
06:00+5se27965 0.0 1033141
09:00+7se39855 0.0 1033395
12:00+11sse59575 0.0 1032860
15:00+11sse695428 0.0 1031961
18:00+10sse5105956 0.0 1030688
21:00+9sse411686 0.0 1030468
1 october, fri
fri100:00+8sse411796 0.0 1029389
03:00+7sse31087100 0.0 1029302
06:00+8sse3882100 0.0 1028352
09:00+8s3885100 0.0 1028376
12:00+8s3987100 0.1 1028459
15:00+8s41088100 0.3 1027530
18:00+7s4992100 1.4 1026447
21:00+7s3895100 2.0 1026379